Lufkin, TX

4:13 PM CDT on May 23, 2018 (GMT -0500)
Angelina County

Weather History for KLFK - September, 2014

Change the Weather History Date:

Thursday, September 18, 2014

  Actual Average Record
Temperature  
Mean Temperature 78 °F 77 °F  
Max Temperature 83 °F 88 °F 101 °F (1935)
Min Temperature 73 °F 65 °F 48 °F (1981)
Degree Days  
Heating Degree Days 0 0  
Month to date heating degree days 0 0  
Since 1 July heating degree days 0 0  
Cooling Degree Days 13 12  
Month to date cooling degree days 330 255  
Year to date cooling degree days 2564 2278  
Growing Degree Days 28 (Base 50)    
Moisture  
Dew Point 71 °F    
Average Humidity 90    
Maximum Humidity 94    
Minimum Humidity 85    
Precipitation  
Precipitation 0.28 in 0.13 in 1.48 in (2006)
Month to date precipitation 3.08 2.55  
Year to date precipitation 35.00 33.14  
Snow  
Snow 0.00 in - - ()
Month to date snowfall 0.0  
Since 1 July snowfall 0.0  
Since 1 September snowfall 0.0  
Snow Depth 0.00 in    
Sea Level Pressure  
Sea Level Pressure 29.90 in    
Wind  
Wind Speed 5 mph (ESE)    
Max Wind Speed 15 mph    
Max Gust Speed 21 mph    
Visibility 6 miles    
Events Fog , Rain    
T = Trace of Precipitation, MM = Missing Value Source: NWS Daily Summary

Daily Weather History Graph

Daily Weather History Graph

Search for Another Location

Airport or City:

Astronomy

Sep. 18, 2014 Rise Set
Actual Time 7:04 AM CDT 7:20 PM CDT
Civil Twilight 6:40 AM CDT 7:44 PM CDT
Nautical Twilight 6:12 AM CDT 8:13 PM CDT
Astronomical Twilight 5:43 AM CDT 8:41 PM CDT
Moon 2:12 AM CDT (9/18) 3:58 PM CDT (9/18)
Length of Visible Light 13h 04m
Length of Day
12h 15m
Waning Crescent, 26% of the Moon is Illuminated
Sep 18
Waning Crescent
Sep 24
New
Oct 1
First Quarter
Oct 8
Full
Oct 15
Last Quarter

Hourly Weather History & Observations

Time (CDT) Temp. Heat Index Dew Point Humidity Pressure Visibility Wind Dir Wind Speed Gust Speed Precip Events Conditions
12:53 AM 75.9 °F - 72.0 °F 87% 29.91 in 8.0 mi Calm Calm - N/A   Clear
1:04 AM 75.9 °F - 72.0 °F 87% 29.92 in 8.0 mi South 3.5 mph - N/A   Partly Cloudy
1:53 AM 75.9 °F - 72.0 °F 87% 29.88 in 7.0 mi Calm Calm - N/A   Partly Cloudy
2:29 AM 75.0 °F - 72.0 °F 90% 29.89 in 2.5 mi ESE 3.5 mph - N/A   Mostly Cloudy
2:44 AM 75.0 °F - 72.0 °F 90% 29.89 in 4.0 mi ESE 3.5 mph - N/A   Overcast
2:50 AM 75.2 °F - 71.6 °F 89% 29.89 in 1.8 mi ESE 3.5 mph - N/A   Overcast
2:53 AM 75.0 °F - 72.0 °F 90% 29.88 in 1.0 mi ESE 3.5 mph - N/A   Overcast
3:01 AM 75.0 °F - 72.0 °F 90% 29.89 in 0.5 mi SE 4.6 mph - N/A Fog Fog
3:53 AM 75.2 °F - 71.6 °F 89% 29.89 in 0.5 mi SE 3.5 mph - N/A Fog Fog
4:53 AM 75.0 °F - 72.0 °F 90% 29.88 in 0.5 mi Calm Calm - 0.01 in Fog , Rain Light Rain
5:51 AM 75.2 °F - 73.4 °F 94% 29.90 in 1.0 mi Calm Calm - 0.01 in Rain Light Rain
5:53 AM 75.9 °F - 73.0 °F 91% 29.88 in 0.8 mi Calm Calm - 0.01 in Rain Light Rain
6:49 AM 75.2 °F - 73.4 °F 94% 29.90 in 0.2 mi Calm Calm - 0.00 in Fog Fog
6:53 AM 75.9 °F - 73.0 °F 91% 29.89 in 0.2 mi East 3.5 mph - 0.00 in Fog Fog
7:03 AM 75.9 °F - 73.0 °F 91% 29.90 in 0.5 mi East 3.5 mph - N/A Fog Fog
7:30 AM 75.9 °F - 73.0 °F 91% 29.91 in 1.2 mi Calm Calm - N/A   Overcast
7:39 AM 75.9 °F - 73.0 °F 91% 29.91 in 3.0 mi East 3.5 mph - N/A   Overcast
7:53 AM 75.9 °F - 73.0 °F 91% 29.91 in 3.0 mi ENE 3.5 mph - N/A   Overcast
8:53 AM 77.0 °F - 73.0 °F 88% 29.91 in 5.0 mi ENE 4.6 mph - N/A   Overcast
9:53 AM 79.0 °F - 73.9 °F 84% 29.93 in 7.0 mi ENE 4.6 mph - N/A   Overcast
10:49 AM 82.4 °F 88.2 °F 73.4 °F 74% 29.94 in 10.0 mi East 4.6 mph - N/A   Overcast
11:33 AM 81.0 °F 86.2 °F 73.9 °F 79% 29.94 in 10.0 mi East 3.5 mph - N/A   Overcast
11:53 AM 81.0 °F 86.2 °F 73.9 °F 79% 29.92 in 9.0 mi SSE 4.6 mph - N/A Rain Light Rain
12:23 PM 77.0 °F - 72.0 °F 84% 29.93 in 6.0 mi East 11.5 mph - 0.02 in Rain Light Rain
12:36 PM 77.0 °F - 72.0 °F 84% 29.93 in 4.0 mi SE 13.8 mph - 0.04 in Rain Light Rain
12:45 PM 75.9 °F - 72.0 °F 87% 29.93 in 2.0 mi SE 15.0 mph - 0.08 in Rain Rain
12:53 PM 75.9 °F - 72.0 °F 87% 29.91 in 3.0 mi SE 12.7 mph - 0.09 in Rain Rain
1:53 PM 75.0 °F - 71.1 °F 87% 29.91 in 8.0 mi SE 13.8 mph 20.7 mph 0.07 in Rain Light Rain
2:53 PM 75.0 °F - 71.1 °F 87% 29.91 in 10.0 mi East 10.4 mph - 0.00 in Rain Light Rain
3:02 PM 75.0 °F - 70.0 °F 84% 29.92 in 10.0 mi East 10.4 mph - 0.00 in Rain Light Rain
3:28 PM 73.9 °F - 69.1 °F 85% 29.91 in 10.0 mi ESE 10.4 mph - 0.00 in Rain Light Rain
3:53 PM 73.9 °F - 69.1 °F 85% 29.90 in 10.0 mi ESE 8.1 mph - 0.00 in Rain Light Rain
4:40 PM 73.0 °F - 69.1 °F 87% 29.88 in 10.0 mi ESE 5.8 mph - 0.00 in Rain Light Rain
4:53 PM 73.0 °F - 69.1 °F 87% 29.88 in 3.0 mi Variable 3.5 mph - 0.04 in Rain Heavy Rain
5:17 PM 73.0 °F - 69.1 °F 87% 29.88 in 4.0 mi SE 8.1 mph - 0.04 in Rain Rain
5:46 PM 73.0 °F - 69.1 °F 87% 29.89 in 5.0 mi ENE 6.9 mph - 0.08 in Rain Light Rain
5:53 PM 73.0 °F - 69.1 °F 87% 29.88 in 7.0 mi ENE 6.9 mph - 0.08 in Rain Light Rain
6:53 PM 73.9 °F - 70.0 °F 87% 29.86 in 10.0 mi ESE 5.8 mph - 0.00 in   Overcast
7:53 PM 73.9 °F - 70.0 °F 87% 29.87 in 9.0 mi East 3.5 mph - N/A   Overcast
8:02 PM 73.9 °F - 70.0 °F 87% 29.88 in 9.0 mi East 5.8 mph - N/A   Overcast
8:21 PM 73.9 °F - 70.0 °F 87% 29.89 in 9.0 mi East 6.9 mph - N/A   Overcast
8:53 PM 73.9 °F - 70.0 °F 87% 29.89 in 10.0 mi ESE 3.5 mph - N/A   Mostly Cloudy
9:53 PM 73.9 °F - 70.0 °F 87% 29.91 in 10.0 mi East 4.6 mph - N/A   Overcast
10:53 PM 73.9 °F - 70.0 °F 87% 29.91 in 9.0 mi ESE 4.6 mph - N/A   Overcast
11:53 PM 73.9 °F - 70.0 °F 87% 29.92 in 10.0 mi ENE 4.6 mph - N/A   Overcast